Overview Statistics Trail Chart Weather Telemetry Raw packets
 

This is the latest recevied weather packets stored in our database for station/object K0APR. If no packets are shown the sender has not sent any weather packets the latest 10 day(s).

<< 105 106 107 108 109 110 111 >>
Time Temp. Humidity Pressure Rain* Wind** Luminosity Snow
1787865394 26.11° C 51% 1019.3 hPa 0 mm - 401 W/m² -
1787865089 26.11° C 50% 1019.3 hPa 0 mm - 448 W/m² -
1787864786 26.11° C 51% 1019.3 hPa 0 mm - 469 W/m² -
1787864485 26.11° C 51% 1019.6 hPa 0 mm - 451 W/m² -
1787864185 26.67° C 51% 1019.6 hPa 0 mm - 477 W/m² -
1787863880 25.56° C 52% 1019.6 hPa 0 mm - 485 W/m² -
1787863578 26.11° C 50% 1019.6 hPa 0 mm - 455 W/m² -
1787863273 25.56° C 51% 1020 hPa 0 mm - 531 W/m² -
1787862969 25.56° C 52% 1020 hPa 0 mm - 522 W/m² -
1787862664 25.56° C 51% 1020 hPa 0 mm - 86 W/m² -
1787862359 25.56° C 51% 1020 hPa 0 mm - 83 W/m² -
1787862055 27.22° C 50% 1019.6 hPa 0 mm - 117 W/m² -
1787861754 26.11° C 52% 1020 hPa 0 mm - 544 W/m² -
1787861452 25.56° C 52% 1019.6 hPa 0 mm - 247 W/m² -
1787861147 26.11° C 52% 1020 hPa 0 mm - 545 W/m² -
1787860846 26.11° C 50% 1019.6 hPa 0 mm - 544 W/m² -
1787860541 25.56° C 51% 1020 hPa 0 mm - 544 W/m² -
1787860236 25.56° C 53% 1020 hPa 0 mm - 557 W/m² -
1787859932 25.56° C 52% 1020 hPa 0 mm - 549 W/m² -
1787859627 26.67° C 51% 1020 hPa 0 mm - 576 W/m² -
1787859326 25.56° C 52% 1020.3 hPa 0 mm - 274 W/m² -
1787859022 25.56° C 51% 1020.3 hPa 0 mm - 576 W/m² -
1787858724 26.11° C 53% 1020.3 hPa 0 mm - 577 W/m² -
1787858414 25.56° C 52% 1020 hPa 0 mm - 552 W/m² -
1787858113 25.56° C 53% 1020.3 hPa 0 mm - 553 W/m² -

* Rain latest hour (hover to see other rain measurements)
** Current wind speed in m/s (hover to see current wind gust speed)